الصفحة الرئيسية
METAR-TAF:

METAR-TAF

مطار :

Normanton, أستراليا

دائرة عرض: 17-41-06S, خط طول: 141-04-12E, ارتفاع: 22 متر

مراقبة الطقس الحالي

تاريخ ووقت الإصدار 28 دقيقة قبل الساعة 21:00UTC
ريح 11 عقدة من الجنوب
درجة الحرارة 24°درجة مئوية
الرطوبة 38%
ضغط 1011 hPa
الرؤية 10 كم أو أكثر

METAR: YNTN 172100Z AUTO 17011KT 9999 // NCD 24/09 Q1011

زمن: 07:28 (21:28 UTC)


TAF: مفقودة

أرصاد الطقس والتوقعات من أكثر من 4000 مطار (تقارير الطقس للمطار METAR والتنبؤ بالطقس بالمطارTAF).

المحطات المتاحة هي النقط الصفراء والحمراء على الخريطة.

حرك المؤشر فوق النقطة لمعرفة اسم المحطة.

ثم انقر لمعرفة أرصاد وتوقعات الطقس.

لتغيير الخارطة: اضغط على الأزرار الخضراء مع رمز الصليب الأسود للتكبير. على الزر الأخضر مع شرطة للتصغير، أو على الأسهم الخضراء للخرائط المجاورة.


METAR-TAF: